Date String (YYYY-MM-DD hh:mm:ss) UTC,Instrument flags,Ambient pressure (hPa),Sample flow (lpm),Bypass flow (lpm),Sample temperature (°C),Ambient temperature (°C),ASC tube jacket temperature (°C),LED temperature (°C),Box temperature (°C),Sample RH (%),Span deviation,Mass concentration (μg/m³),Mass concentration (μg/m³),Mass concentration (μg/m³)
DateTimeUTC,F1_M11,P_M11,Q1_M11,Q2_M11,T1_M11,T2_M11,T3_M11,T4_M11,T5_M11,U1_M11,ZSPAN_M11,X0_M11,X2_M11,X1_M11
2021-09-28 18:00:00,,0820.3,5.00,0.00,29.4,28.0,00.0,38.5,31.3,19.8,0002.7,0023.16,0006.61,0004.81
2021-09-28 18:01:00,,0820.3,4.99,0.00,29.5,28.2,00.0,38.5,31.3,19.7,0002.6,0022.68,0006.58,0004.82
2021-09-28 18:02:00,,0820.3,5.00,0.00,29.5,28.4,00.0,38.5,31.4,19.4,0002.4,0021.14,0006.59,0004.83
2021-09-28 18:03:00,,0820.2,5.01,0.00,29.6,28.6,00.0,38.5,31.5,19.4,0002.4,0019.74,0006.56,0004.82
2021-09-28 18:04:00,,0820.2,4.99,0.00,29.6,28.7,00.0,38.5,31.5,19.6,0002.5,0019.36,0006.58,0004.81
2021-09-28 18:05:00,,0820.2,5.01,0.00,29.6,27.7,00.0,38.6,31.3,19.1,0002.0,0019.72,0006.60,0004.78
2021-09-28 18:06:00,,0820.2,5.00,0.00,29.5,26.1,00.0,38.6,30.9,19.3,0001.8,0018.59,0006.51,0004.75
2021-09-28 18:07:00,,0820.2,5.00,0.00,29.4,26.1,00.0,38.5,30.8,19.5,0001.7,0016.76,0006.41,0004.71
2021-09-28 18:08:00,,0820.2,5.00,0.00,29.3,26.5,00.0,38.5,30.9,19.5,0001.5,0015.92,0006.22,0004.65
2021-09-28 18:09:00,,0820.2,5.01,0.00,29.3,27.0,00.0,38.5,31.0,19.1,0001.2,0015.35,0006.06,0004.57
2021-09-28 18:10:00,,0820.2,5.00,0.00,29.3,27.4,00.0,38.5,31.1,18.5,0001.0,0013.91,0005.87,0004.50
2021-09-28 18:11:00,,0820.2,5.00,0.00,29.4,27.8,00.0,38.5,31.2,18.4,0000.8,0012.57,0005.58,0004.40
2021-09-28 18:12:00,,0820.2,5.01,0.00,29.4,28.1,00.0,38.5,31.3,18.0,0000.6,0011.48,0005.31,0004.28
2021-09-28 18:13:00,,0820.1,5.00,0.00,29.5,28.3,00.0,38.5,31.4,18.4,0000.7,0010.39,0005.05,0004.15
2021-09-28 18:14:00,,0820.1,5.00,0.00,29.5,28.5,00.0,38.5,31.4,18.1,0000.7,0010.28,0004.86,0004.05
2021-09-28 18:15:00,,0820.0,5.00,0.00,29.6,27.8,00.0,38.5,31.2,18.3,0000.8,0009.50,0004.62,0003.95
2021-09-28 18:16:00,,0820.0,5.00,0.00,29.4,26.1,00.0,38.5,30.8,18.4,0000.9,0008.50,0004.41,0003.86
2021-09-28 18:17:00,,0820.0,5.00,0.00,29.3,25.9,00.0,38.5,30.7,18.7,0001.2,0008.14,0004.27,0003.81
2021-09-28 18:18:00,,0820.0,4.99,0.00,29.3,26.4,00.0,38.4,30.8,18.6,0001.3,0007.93,0004.20,0003.76
2021-09-28 18:19:00,,0820.0,5.00,0.00,29.2,26.8,00.0,38.4,30.9,18.6,0001.1,0007.73,0004.14,0003.74
2021-09-28 18:20:00,,0820.0,5.00,0.00,29.3,27.2,00.0,38.4,31.0,18.4,0001.3,0007.54,0004.06,0003.69
2021-09-28 18:21:00,,0819.9,4.99,0.00,29.3,27.6,00.0,38.4,31.1,18.2,0001.5,0007.32,0003.96,0003.64
2021-09-28 18:22:00,,0819.9,5.01,0.00,29.3,27.9,00.0,38.4,31.2,18.2,0001.2,0007.37,0003.94,0003.60
2021-09-28 18:23:00,,0819.9,5.00,0.00,29.4,28.2,00.0,38.4,31.3,18.2,0001.1,0007.45,0003.96,0003.60
2021-09-28 18:24:00,,0819.9,5.00,0.00,29.5,28.4,00.0,38.4,31.3,18.4,0001.1,0007.97,0003.96,0003.61
2021-09-28 18:25:00,,0819.9,4.99,0.00,29.5,28.6,00.0,38.4,31.4,18.4,0001.4,0008.06,0003.93,0003.59
2021-09-28 18:26:00,,0819.9,5.01,0.00,29.5,28.2,00.0,38.4,31.3,18.1,0001.4,0008.06,0003.90,0003.58
2021-09-28 18:27:00,,0819.9,4.99,0.00,29.4,26.4,00.0,38.4,30.8,17.8,0001.5,0008.27,0003.88,0003.56
2021-09-28 18:28:00,,0820.0,5.00,0.00,29.3,25.9,00.0,38.4,30.6,17.9,0001.6,0008.34,0003.82,0003.51
2021-09-28 18:29:00,,0820.0,5.01,0.00,29.2,26.3,00.0,38.4,30.8,18.2,0001.9,0008.35,0003.78,0003.49
2021-09-28 18:30:00,,0819.9,5.00,0.00,29.2,26.8,00.0,38.4,30.9,17.9,0002.3,0008.23,0003.73,0003.44
2021-09-28 18:31:00,,0819.9,4.99,0.00,29.2,27.2,00.0,38.3,31.0,17.9,0002.5,0008.02,0003.68,0003.42
2021-09-28 18:32:00,,0819.9,5.00,0.00,29.3,27.6,00.0,38.3,31.1,18.0,0002.3,0008.02,0003.69,0003.42
2021-09-28 18:33:00,,0819.8,5.00,0.00,29.3,27.9,00.0,38.3,31.2,17.7,0002.5,0008.23,0003.71,0003.46
2021-09-28 18:34:00,,0819.9,5.00,0.00,29.4,28.2,00.0,38.4,31.3,17.8,0002.7,0008.71,0003.75,0003.49
2021-09-28 18:35:00,,0819.9,5.00,0.00,29.4,28.4,00.0,38.4,31.3,17.7,0002.6,0008.33,0003.79,0003.54
2021-09-28 18:36:00,,0819.8,5.01,0.00,29.5,28.5,00.0,38.4,31.4,17.8,0002.6,0008.08,0003.92,0003.64
2021-09-28 18:37:00,,0819.7,5.00,0.00,29.5,27.5,00.0,38.4,31.1,18.0,0002.4,0008.20,0004.05,0003.75
2021-09-28 18:38:00,,0819.7,5.00,0.00,29.3,25.9,00.0,38.4,30.6,18.0,0002.4,0008.72,0004.18,0003.87
2021-09-28 18:39:00,,0819.7,5.01,0.00,29.2,26.0,00.0,38.4,30.6,18.4,0002.3,0009.18,0004.34,0004.02
2021-09-28 18:40:00,,0819.6,4.99,0.00,29.2,26.4,00.0,38.3,30.7,18.6,0002.1,0009.36,0004.49,0004.16
2021-09-28 18:41:00,,0819.7,4.99,0.00,29.2,26.8,00.0,38.3,30.8,18.4,0001.8,0009.88,0004.66,0004.29
2021-09-28 18:42:00,,0819.6,5.01,0.00,29.2,27.3,00.0,38.3,31.0,18.0,0001.6,0010.24,0004.78,0004.39
2021-09-28 18:43:00,,0819.6,4.99,0.00,29.3,27.6,00.0,38.3,31.1,18.5,0001.8,0010.40,0004.89,0004.50
2021-09-28 18:44:00,,0819.6,5.01,0.00,29.3,28.0,00.0,38.3,31.2,18.3,0001.6,0011.92,0005.05,0004.63
2021-09-28 18:45:00,,0819.6,4.99,0.00,29.4,28.2,00.0,38.3,31.2,18.3,0001.6,0012.35,0005.17,0004.73
2021-09-28 18:46:00,,0819.5,5.00,0.00,29.4,28.4,00.0,38.3,31.3,18.4,0001.7,0012.67,0005.29,0004.86
2021-09-28 18:47:00,,0819.5,5.00,0.00,29.5,28.4,00.0,38.4,31.3,18.7,0001.5,0012.82,0005.37,0004.92
2021-09-28 18:48:00,,0819.5,5.01,0.00,29.4,26.9,00.0,38.4,30.9,18.4,0001.5,0013.00,0005.45,0005.00
2021-09-28 18:49:00,,0819.5,5.00,0.00,29.2,25.8,00.0,38.4,30.6,18.5,0001.3,0012.47,0005.50,0005.08
2021-09-28 18:50:00,,0819.5,5.01,0.00,29.2,26.1,00.0,38.3,30.7,18.6,0001.2,0012.99,0005.57,0005.13
2021-09-28 18:51:00,,0819.4,4.99,0.00,29.1,26.5,00.0,38.3,30.8,18.2,0001.0,0013.91,0005.63,0005.16
2021-09-28 18:52:00,,0819.4,5.00,0.00,29.1,26.9,00.0,38.3,30.8,18.1,0001.4,0014.18,0005.65,0005.18
2021-09-28 18:53:00,,0819.4,4.99,0.00,29.2,27.3,00.0,38.3,30.9,18.4,0001.6,0014.08,0005.71,0005.26
2021-09-28 18:54:00,,0819.4,5.00,0.00,29.2,27.7,00.0,38.3,31.0,18.3,0001.6,0014.47,0005.82,0005.32
2021-09-28 18:55:00,,0819.4,5.00,0.00,29.3,28.0,00.0,38.3,31.1,18.5,0002.0,0012.90,0005.83,0005.36
2021-09-28 18:56:00,,0819.3,4.99,0.00,29.3,28.2,00.0,38.3,31.2,18.1,0001.9,0012.53,0005.86,0005.38
2021-09-28 18:57:00,,0819.3,5.00,0.00,29.4,28.4,00.0,38.3,31.3,18.0,0001.9,0012.72,0005.87,0005.39
2021-09-28 18:58:00,,0819.2,5.00,0.00,29.5,28.6,00.0,38.3,31.4,18.0,0002.0,0013.60,0005.87,0005.39
2021-09-28 18:59:00,,0819.2,5.01,0.00,29.5,28.2,00.0,38.4,31.3,17.9,0002.1,0014.91,0005.87,0005.39
